{"data":{"norad_id":63289,"epoch":"2026-05-25T04:08:52.503360Z","epoch_age_seconds":53279,"freshness":"FRESH","line1":"1 63289U 25054B   26145.17282990  .00000055  00000+0  32154-3 0  9997","line2":"2 63289  82.4913  92.8700 0022287  73.4305 286.9220 12.42876470 53992","mean_motion":12.4287647,"eccentricity":0.0022287,"inclination_deg":82.4913,"raan_deg":92.87,"arg_perigee_deg":73.4305,"mean_anomaly_deg":286.922,"bstar":0.00032154,"rev_number":5399,"period_min":115.86026727177,"perigee_km":1476.8873976301,"apogee_km":1511.9785911231,"semimajor_km":7872.5699943766,"source":"CELESTRAK","updated_at":"2026-05-25T13:38:03.618673Z"}}